Location: ???????
(55.4362°N, 38.1183°E)
Time: 19:00:59
(UTC+00:00)

OPS 8737 - Pass Details

Date: 29 October 2021
Orbit: 356 x 1703 km, 63.3° (Epoch: 11 October)

Event Time Altitude Azimuth Distance (km) Brightness Sun altitude
Rises 16:46:47 0° 309° (NW) 2,198 8.9 -24.7°
Reaches altitude 10° 16:48:46 10° 316° (NW) 1,349 7.5 -25.0°
Enters shadow 16:49:36 17° 322° (NW) 1,011 6.7 -25.1°
